Hourly Data Report for May 10, 2018

DRYDEN REGIONAL
ONTARIO
Current Station Operator: NAVCAN

49°49'39.000" N
92°44'39.000" W
412.70 m
6032125
71527
YHD

Download Data

Hourly Data (May 2018)
Hourly Data Report for May 10, 2018
TIME
LST
Temp Definition
°C
Dew Point Definition
°C
Rel Hum Definition
%
Precip. Amount Definition
mm

Wind Dir Definition
10's deg

Wind Spd Definition
km/h
Visibility Definition
km
Stn Press Definition
kPa
Hmdx Definition


Wind Chill Definition


Weather Definition


00:00 1.4 -6.5 56 0.0 35 18 16.1 96.41     LegendNANA
01:00 -0.1 -7.2 59 0.0 1 17 16.1 96.50   -5 LegendNANA
02:00 -1.1 -7.5 62 0.0 36 11 16.1 96.54   -5 LegendNANA
03:00 -1.9 -7.1 68 0.0 32 5 16.1 96.61   -4 LegendNANA
04:00 -2.1 -7.2 68 0.0 32 9 16.1 96.67   -6 LegendNANA
05:00 -1.8 -7.1 67 0.0 34 9 16.1 96.68   -5 LegendNANA
06:00 -1.0 -6.9 64 0.0 34 9 16.1 96.75   -4 LegendNANA
07:00 0.2 -8.3 53 0.0 35 15 16.1 96.82     LegendNANA
08:00 1.7 -10.3 41 0.0 36 18 16.1 96.87     LegendNANA
09:00 2.5 -10.1 39 0.0 32 18 16.1 96.91     LegendNANA
10:00 3.4 -10.1 37 0.0 31 13 16.1 96.95     LegendNANA
11:00 4.7 -11.4 30 0.0 35 21 16.1 96.98     LegendNANA
12:00 5.1 -12.1 28 0.0 33 15 16.1 97.02     LegendNANA
13:00 5.8 -12.8 25 0.0 32 15 16.1 97.03     LegendNANA
14:00 6.5 -11.5 26 0.0 LegendMM 9 16.1 97.04     LegendNANA
15:00 7.1 -12.1 24 0.0 34 8 16.1 97.01     LegendNANA
16:00 8.0 -12.1 23 0.0 36 9 16.1 97.04     LegendNANA
17:00 7.7 -13.4 21 0.0 28 8 16.1 97.05     LegendNANA
18:00 7.9 -13.5 20 0.0 LegendMM 8 16.1 97.04     LegendNANA
19:00 6.8 -13.1 23 0.0 LegendMM 4 16.1 97.03     LegendNANA
20:00 4.3 -10.0 35 0.0 6 5 16.1 97.07     LegendNANA
21:00 3.0 -9.3 40 0.0 9 8 16.1 97.10     LegendNANA
22:00 2.1 -6.9 51 0.0 8 8 16.1 97.10     LegendNANA
23:00 2.0 -8.3 47 0.0 8 5 16.1 97.12     LegendNANA

Notes on Data Quality.

Legend

  • E = Estimated
  • M = Missing
  • NA = Not Available*
  • [empty] = Indicates an unobserved value
Date modified: